sat.trackr.live / text

‹ back to catalog

STARLINK-33895

NORAD 63934 · 2025-098J

PAYLOAD ACTIVE UNKNOWN

§ Identity

Operator
Country
US
Launch date
2025-05-13
Launch site
AFWTR
Launch vehicle
Mass (kg)
RCS (m²)

Purposes: comms

External: N2YO · Heavens-Above · Gunter

§ Orbital elements

Epoch: 2026-09-20T22:25:50.098368Z

Period
94.14 min
Inclination
70.0017°
Eccentricity
0.0002635
Mean motion
15.29586008 rev/d
Perigee alt
475.2 km
Apogee alt
478.9 km
Semi-major
6,855.2 km
B*
4.3606e-4
RAAN
139.5710°
Arg perigee
271.5617°
Mean anomaly
88.5257°
Rev number
7,588

§ Raw data

STARLINK-338951 63934U 25098J   26263.93460762  .00012430  00000+0  43606-3 0  99962 63934  70.0017 139.5710 0002635 271.5617  88.5257 15.29586008 75880

JSON: /api/v1/satellites/63934 · /tle

For live sub-satellite position, see the globe view (requires WebGL).

§ Visibility from observer

Set your observer location to see the next 7 days of passes ≥ 10°. The values pass through the URL so the page stays shareable.

No JS? Fill the form by hand. The geolocation button needs JavaScript.